Regional Weather Roundup
Issued by NWS

Home | Current Version | Previous Version | Graphics & Text | Print | Product List | Glossary On
Versions: 1 2 3 4 5 6 7 8 9 10 11 12 13 14 15 16 17 18 19 20 21 22 23 24 25 26 27 28 29
000
ASUS45 KPSR 260910
RWRAZ

ARIZONA HOURLY REGIONAL WEATHER ROUNDUP
NATIONAL WEATHER SERVICE PHOENIX AZ
200 AM MST THU APR 26 2018

NOTE: FAIR INDICATES FEW OR NO CLOUDS BELOW 12,000 FEET WITH NO
SIGNIFICANT WEATHER AND/OR OBSTRUCTIONS TO VISIBILITY.

AZZ001>003-036-261000-
NORTHWEST ARIZONA

CITY           SKY/WX    TMP DP  RH WIND       PRES   REMARKS
BULLHEAD CITY  CLEAR     77  19  11 E3        29.81F
KINGMAN        CLEAR     59  19  21 S5        29.99F
$$

AZZ004>008-015-016-018-261000-
NORTH CENTRAL ARIZONA

CITY           SKY/WX    TMP DP  RH WIND       PRES   REMARKS
GRAND CANYON   CLEAR     34  14  43 CALM      30.19F HAZE
WILLIAMS       CLEAR     46  16  29 S9        30.16F
PRESCOTT       PTCLDY    59  22  24 NE3       30.08F
FLAGSTAFF      CLEAR     35  17  47 N3        30.20F
PAYSON         PTCLDY    57  18  21 CALM      30.09F
PAGE           CLEAR     59  23  25 W3        30.05S
$$

AZZ009>014-017-261000-
NORTHEAST ARIZONA

CITY           SKY/WX    TMP DP  RH WIND       PRES   REMARKS
WINSLOW        CLEAR     50  12  21 CALM      30.10F
SAINT JOHNS    CLEAR     50  16  25 S6        30.13F
WINDOW ROCK    CLEAR     36   1  22 CALM      30.18F
SHOW LOW       PTCLDY    45  10  24 S5        30.17F
$$

AZZ540-542>544-546-548-261000-
GREATER PHOENIX AREA

CITY           SKY/WX    TMP DP  RH WIND       PRES   REMARKS
PHOENIX        MOCLDY    82  29  14 W5        29.82F
BUCKEYE        PTCLDY    75  27  16 W3        29.84F
LUKE AFB       PTCLDY    78  33  19 E5        29.82F
DEER VALLEY    PTCLDY    73  25  16 E5        29.84F
SCOTTSDALE     CLEAR     73  36  25 CALM      29.86F
MESA-GATEWAY   CLEAR     68  26  20 E8        29.87F
$$

AZZ539-553-261000-
SOUTHWEST MARICOPA COUNTY AND PINAL COUNTY

CITY           SKY/WX    TMP DP  RH WIND       PRES   REMARKS
CASA GRANDE    CLEAR     73  27  18 S3        29.87F
GILA BEND      FAIR      73  21  14 S7        29.83F
$$

AZZ503-504-507>509-261000-
SOUTHEAST ARIZONA

CITY           SKY/WX    TMP DP  RH WIND       PRES   REMARKS
TUCSON         CLEAR     70  29  21 SE9       29.97F
DAVIS-MONTHAN  CLEAR     65  29  26 S8        29.95
NOGALES        CLEAR     61  31  32 CALM      30.03F
SIERRA VISTA   CLEAR     61  23  23 W8        30.07F
DOUGLAS        PTCLDY    60  18  19 N3        30.04F
SAFFORD        CLEAR     65  16  15 CALM      29.95S
$$

AZZ532-261000-
SOUTHWEST ARIZONA

CITY           SKY/WX    TMP DP  RH WIND       PRES   REMARKS
YUMA           PTCLDY    77  37  23 NW5       29.81F
$$

CAZ041-043-047-048-061-525>527-560>570-261000-
SOUTHERN CALIFORNIA

CITY           SKY/WX    TMP DP  RH WIND       PRES   REMARKS
DOWNTOWN L.A.  CLOUDY    56  52  86 CALM      30.02F
L.A. AIRPORT   CLOUDY    56  52  86 W5        30.02F
SAN DIEGO      MOCLDY    59  51  75 NW5       30.04F
BURBANK        CLEAR     55  53  93 SE7       30.01F
ONTARIO        PTCLDY    54  47  77 W6        30.01F
RIVERSIDE      CLEAR     56  49  77 VRB3      30.02F
PALM SPRINGS   CLEAR     73  38  27 SE5       29.84F
EL CENTRO NAS  PTCLDY    80  13   8 W23       29.82F
IMPERIAL       PTCLDY    77  22  13 W13       29.80F
BLYTHE         PTCLDY    76  39  26 W5        29.80F
NEEDLES        CLEAR     79  19  10 W9        29.82F
$$

NVZ020-UTZ003-261000-
SOUTHERN NEVADA-UTAH

CITY           SKY/WX    TMP DP  RH WIND       PRES   REMARKS
LAS VEGAS      PTCLDY    75  23  14 CALM      29.89F
SALT LAKE CITY PTCLDY    51  36  56 SW6       30.13F
$$

NMZ009-TXZ055-261000-
NEW MEXICO-WEST TEXAS

CITY           SKY/WX    TMP DP  RH WIND       PRES   REMARKS
ALBUQUERQUE    CLEAR     56  28  34 N3        30.08S
EL PASO        PTCLDY    56  39  53 CALM      30.08F
$$


........................KEY........................
SKY/WX - SKY CONDITION/WEATHER
TMP    - TEMPERATURE IN FAHRENHEIT
DP     - DEW POINT IN FAHRENHEIT
RH     - RELATIVE HUMIDITY IN PERCENT
WIND   - DIRECTION AND SPEED IN MILES PER HOUR (MPH)
VRB    - VARIABLE WIND DIRECTION
PRES   - MEAN SEA LEVEL PRESSURE IN INCHES OF MERCURY
         F - FALLING PRESSURE   R - RISING PRESSURE
         S - STEADY PRESSURE
VSB    - VISIBILITY IN MILES
HX     - HEAT INDEX IN FAHRENHEIT
WCI    - WIND CHILL INDEX IN FAHRENHEIT
TC     - TEMPERATURE IN CELSIUS WHICH IS ALSO KNOWN AS
         TEMPERATURE IN CENTIGRADE
AFB    - AIR FORCE BASE
         LUKE AFB IS LUKE AIR FORCE BASE
         DAVIS-MONTHAN IS DAVIS-MONTHAN AIR FORCE BASE
NAS    - NAVAL AIR STATION
         EL CENTRO NAS IS EL CENTRO NAVAL AIR STATION
N/A    - NOT AVAILABLE





USA.gov is the U.S. government's official web portal to all federal, state and local government web resources and services.